This is the latest recevied weather packets stored in our database for station/object DL7HMX-13. If no packets are shown the sender has not sent any weather packets the latest 10 day(s).
| Time | Temp. | Humidity | Pressure | Rain* | Wind** | Luminosity | Snow |
|---|---|---|---|---|---|---|---|
| 1777546218 | 12.78° C | 30% | 1028.8 hPa | 0 mm | - | 643 W/m² | - |
| 1777545620 | 12.78° C | 30% | 1028.9 hPa | 0 mm | - | 642 W/m² | - |
| 1777545023 | 12.22° C | 31% | 1028.8 hPa | 0 mm | - | 639 W/m² | - |
| 1777544426 | 12.22° C | 30% | 1029 hPa | 0 mm | - | 636 W/m² | - |
| 1777543830 | 11.67° C | 32% | 1029.1 hPa | 0 mm | - | 633 W/m² | - |
| 1777543216 | 12.22° C | 31% | 1029.2 hPa | 0 mm | - | 625 W/m² | - |
| 1777542620 | 12.22° C | 31% | 1029.2 hPa | 0 mm | - | 619 W/m² | - |
| 1777542022 | 11.11° C | 32% | 1029.3 hPa | 0 mm | - | 611 W/m² | - |
| 1777541424 | 11.67° C | 32% | 1029.6 hPa | 0 mm | - | 601 W/m² | - |
| 1777540827 | 11.11° C | 31% | 1029.5 hPa | 0 mm | - | 592 W/m² | - |
| 1777540231 | 11.11° C | 32% | 1029.7 hPa | 0 mm | - | 581 W/m² | - |
| 1777539617 | 10° C | 34% | 1029.7 hPa | 0 mm | - | 571 W/m² | - |
| 1777539017 | 10.56° C | 34% | 1029.7 hPa | 0 mm | - | 557 W/m² | - |
| 1777538416 | 10.56° C | 35% | 1029.8 hPa | 0 mm | - | 542 W/m² | - |
| 1777537819 | 9.44° C | 36% | 1029.9 hPa | 0 mm | - | 526 W/m² | - |
| 1777537223 | 8.89° C | 38% | 1029.9 hPa | 0 mm | - | 506 W/m² | - |
| 1777536625 | 9.44° C | 38% | 1029.9 hPa | 0 mm | - | 476 W/m² | - |
| 1777536027 | 8.89° C | 38% | 1029.9 hPa | 0 mm | - | 457 W/m² | - |
| 1777535431 | 8.89° C | 38% | 1029.9 hPa | 0 mm | - | 437 W/m² | - |
| 1777534817 | 7.78° C | 40% | 1029.9 hPa | 0 mm | - | 417 W/m² | - |
| 1777534220 | 7.78° C | 40% | 1029.9 hPa | 0 mm | - | 392 W/m² | - |
| 1777533623 | 8.33° C | 40% | 1029.9 hPa | 0 mm | - | 358 W/m² | - |
| 1777533026 | 7.78° C | 40% | 1030 hPa | 0 mm | - | 318 W/m² | - |
| 1777532428 | 8.33° C | 40% | 1030 hPa | 0 mm | - | 318 W/m² | - |
| 1777531831 | 7.22° C | 41% | 1030.2 hPa | 0 mm | - | 286 W/m² | - |
* Rain latest hour (hover to see other rain measurements)
** Current wind speed in m/s (hover to see current wind gust speed)